,

(GMT )
Killarney

Weather History for CWBE - January, 2014

Change the Weather History Date:

Sunday, January 26, 2014

  Actual Average Record
Temperature  
Mean Temperature -4 °F -  
Max Temperature 5 °F - - ()
Min Temperature -13 °F - - ()
Degree Days  
Heating Degree Days 70    
Moisture  
Dew Point -10 °F    
Average Humidity 72    
Maximum Humidity 89    
Minimum Humidity 48    
Precipitation  
Precipitation 0.00 in - - ()
Sea Level Pressure  
Sea Level Pressure 29.57 in    
Wind  
Wind Speed 6 mph ()    
Max Wind Speed 15 mph    
Max Gust Speed 21 mph    
T = Trace of Precipitation, MM = Missing Value Source: Averaged Metar Reports

Daily Weather History Graph

Daily Weather History Graph

Search for Another Location

Airport or City:

Trip Planner

Search our weather history database for the weather conditions in past years. The results will help you decide how hot, cold, wet, or windy it might be!

Date:

Astronomy

Jan. 26, 2014 Rise Set
Actual Time 7:54 AM EST 5:22 PM EST
Civil Twilight 7:22 AM EST 5:55 PM EST
Nautical Twilight 6:46 AM EST 6:31 PM EST
Astronomical Twilight 6:10 AM EST 7:06 PM EST
Moon 3:31 AM EST (1/26) 1:09 PM EST (1/26)
Length of Visible Light 10h 32m
Length of Day
9h 27m
Waning Crescent, 24% of the Moon is Illuminated
Jan 26
Waning Crescent
Jan 30
New
Feb 6
First Quarter
Feb 14
Full
Feb 22
Last Quarter

Hourly Weather History & Observations

Time (EST) Temp. Windchill Dew Point Humidity Pressure Visibility Wind Dir Wind Speed Gust Speed Precip Events Conditions
12:00 AM -8.7 °F -17.8 °F -16.4 °F 69% 29.67 in - NW 3.5 mph - N/A   Unknown
1:00 AM -8 °F - -17 °F 48% 29.66 in - NW 2.3 mph - -  
1:00 AM -8.0 °F - -17.3 °F 64% 29.66 in - NW 2.3 mph - N/A   Unknown
2:00 AM -8.3 °F -19.6 °F -17.7 °F 64% 29.67 in - NNW 4.6 mph - N/A   Unknown
3:00 AM -10.8 °F - -19.1 °F 67% 29.68 in - WNW 2.3 mph - N/A   Unknown
4:00 AM -9.9 °F -19.2 °F -18.9 °F 65% 29.68 in - North 3.5 mph - N/A   Unknown
5:00 AM -9.6 °F - -19.1 °F 63% 29.68 in - NW 2.3 mph - N/A   Unknown
6:00 AM -12.8 °F - -17.5 °F 80% 29.70 in - East 2.3 mph - N/A   Unknown
7:00 AM -13 °F - -20 °F 57% 29.71 in - ENE 5.8 mph - -  
7:00 AM -12.8 °F -26.8 °F -19.8 °F 71% 29.71 in - ENE 5.8 mph - N/A   Unknown
8:00 AM -12.1 °F -21.7 °F -20.2 °F 67% 29.70 in - NNE 3.5 mph - N/A   Unknown
9:00 AM -8.7 °F -21.9 °F -18.0 °F 64% 29.68 in - ENE 5.8 mph - N/A   Unknown
10:00 AM -7.6 °F -25.7 °F -16.4 °F 65% 29.65 in - ENE 10.4 mph - N/A   Unknown
11:00 AM -5.6 °F -23.2 °F -10.3 °F 80% 29.64 in - ENE 10.4 mph - N/A   Unknown
12:00 PM -2.6 °F -21.1 °F -8.7 °F 75% 29.58 in - ENE 12.7 mph - N/A   Unknown
1:00 PM 0 °F - -5 °F 67% 29.55 in - East 11.5 mph - -  
1:00 PM 0.5 °F -16.5 °F -5.4 °F 76% 29.55 in - East 11.5 mph - N/A   Unknown
2:00 PM 2.5 °F -14.0 °F -3.1 °F 78% 29.54 in - East 11.5 mph - N/A   Unknown
3:00 PM 3.0 °F -15.5 °F -2.4 °F 78% 29.50 in - East 15.0 mph - N/A   Unknown
4:00 PM 3.2 °F -15.3 °F -2.2 °F 78% 29.48 in - East 15.0 mph - N/A   Unknown
5:00 PM 2.7 °F -15.3 °F -2.0 °F 81% 29.46 in - ENE 13.8 mph - N/A   Unknown
6:00 PM 2.8 °F -15.0 °F -2.0 °F 80% 29.45 in - ENE 13.8 mph - N/A   Unknown
7:00 PM 2 °F - -2 °F 73% 29.42 in - ENE 13.8 mph - -  
7:00 PM 2.5 °F -15.5 °F -2.4 °F 80% 29.42 in - ENE 13.8 mph - N/A   Unknown
8:00 PM 2.1 °F -14.4 °F -2.6 °F 81% 29.40 in - ENE 11.5 mph 17.3 mph N/A   Unknown
9:00 PM 3.0 °F -14.1 °F 0.5 °F 89% 29.37 in - ENE 12.7 mph 19.6 mph N/A   Unknown
10:00 PM 4.8 °F -11.8 °F 0.7 °F 83% 29.34 in - ENE 12.7 mph 20.7 mph N/A   Unknown
11:00 PM 5.7 °F -4.8 °F 1.9 °F 84% 29.32 in - North 5.8 mph - N/A   Unknown